Tracking 23099 objects as of 13-May-2021
HD Live streaming from Space Station
objects crossing your sky now

RAAVANA1

Track RAAVANA1 now!
10-day predictions
RAAVANA1 is classified as:


NORAD ID: 44330
Int'l Code: 1998-067QF
Perigee: 352.9 km
Apogee: 358.9 km
Inclination: 51.6 °
Period: 91.5 minutes
Semi major axis: 6726 km
RCS: Unknown
Launch date: November 20, 1998
Source: Democratic Socialist Republic of Sri Lanka (LKA)
Launch site: TYURATAM MISSILE AND SPACE COMPLEX (TTMTR)

Uplink (MHz):
Downlink (MHz): 437.375
Beacon (MHz): 437.375
Mode: 4800bps GMSK CW
Call sign: JG6YLE
Status: Active

aabbcc
Your satellite tracking list
Your tracking list is empty




NASA's NSSDC Master Catalog

Two Line Element Set (TLE):
1 44330U 98067QF  21132.63528715  .00044201  00000-0  31228-3 0  9990
2 44330  51.6299 110.0221 0004426 115.0331 245.1128 15.73553894108489
Source of the keplerian elements: AFSPC